Time,TemperatureF,DewpointF,PressureIn,WindDirection,WindDirectionDegrees,WindSpeedMPH,WindSpeedGustMPH,Humidity,HourlyPrecipIn,Conditions,Clouds,dailyrainin,SolarRadiationWatts/m^2,SoftwareType,DateUTC
2013-06-27 00:02:00,61.0,59.0,30.10,WNW,299,0.0,1.0,93,0.00,,,0.06,0.000000,,2013-06-27 07:02:00,
2013-06-27 00:12:00,60.0,58.0,30.10,WNW,299,1.0,1.0,94,0.00,,,0.06,0.000000,,2013-06-27 07:12:00,
2013-06-27 00:22:00,60.0,58.0,30.10,WNW,299,1.0,1.0,94,0.00,,,0.06,0.000000,,2013-06-27 07:22:00,
2013-06-27 00:33:00,60.0,58.0,30.10,WNW,299,1.0,2.0,94,0.00,,,0.05,0.000000,,2013-06-27 07:33:00,
2013-06-27 00:42:00,60.0,59.0,30.10,WNW,299,0.0,1.0,95,0.00,,,0.05,0.000000,,2013-06-27 07:42:00,
2013-06-27 00:52:00,60.0,59.0,30.10,WNW,299,0.0,1.0,95,0.00,,,0.05,0.000000,,2013-06-27 07:52:00,
2013-06-27 01:01:00,60.0,59.0,30.10,WNW,299,1.0,1.0,95,0.00,,,0.05,0.000000,,2013-06-27 08:01:00,
2013-06-27 01:11:00,60.0,59.0,30.10,WNW,299,0.0,1.0,95,0.00,,,0.05,0.000000,,2013-06-27 08:11:00,
2013-06-27 01:22:00,60.0,59.0,30.10,WNW,299,0.0,1.0,95,0.00,,,0.05,0.000000,,2013-06-27 08:22:00,
2013-06-27 01:34:00,59.0,58.0,30.10,WNW,299,1.0,1.0,95,0.00,,,0.04,0.000000,,2013-06-27 08:34:00,
2013-06-27 01:52:00,59.0,58.0,30.10,WNW,299,0.0,1.0,96,0.00,,,0.04,0.000000,,2013-06-27 08:52:00,
2013-06-27 02:02:00,59.0,58.0,30.10,WNW,299,1.0,1.0,96,0.00,,,0.04,0.000000,,2013-06-27 09:02:00,
2013-06-27 02:11:00,59.0,58.0,30.10,WNW,299,0.0,1.0,96,0.00,,,0.04,0.000000,,2013-06-27 09:11:00,
2013-06-27 02:22:00,59.0,58.0,30.10,WNW,299,0.0,1.0,96,0.00,,,0.04,0.000000,,2013-06-27 09:22:00,
2013-06-27 02:33:00,59.0,58.0,30.10,WNW,299,0.0,1.0,97,0.00,,,0.03,0.000000,,2013-06-27 09:33:00,
2013-06-27 02:43:00,59.0,58.0,30.10,WNW,299,0.0,1.0,97,0.00,,,0.03,0.000000,,2013-06-27 09:43:00,
2013-06-27 02:53:00,59.0,58.0,30.10,WNW,299,0.0,1.0,97,0.00,,,0.03,0.000000,,2013-06-27 09:53:00,
2013-06-27 03:01:00,59.0,58.0,30.10,WNW,299,0.0,1.0,97,0.00,,,0.03,0.000000,,2013-06-27 10:01:00,
2013-06-27 03:11:00,59.0,58.0,30.10,WNW,299,0.0,1.0,97,0.00,,,0.03,0.000000,,2013-06-27 10:11:00,
2013-06-27 03:22:00,59.0,58.0,30.10,WNW,299,0.0,1.0,97,0.00,,,0.03,0.000000,,2013-06-27 10:22:00,
2013-06-27 03:32:00,59.0,58.0,30.10,WNW,299,0.0,1.0,98,0.00,,,0.03,0.000000,,2013-06-27 10:32:00,
2013-06-27 03:43:00,59.0,58.0,30.09,WNW,299,0.0,1.0,97,0.00,,,0.03,0.000000,,2013-06-27 10:43:00,
2013-06-27 03:54:00,59.0,58.0,30.09,WNW,299,0.0,1.0,97,0.00,,,0.03,0.000000,,2013-06-27 10:54:00,
2013-06-27 04:01:00,59.0,58.0,30.09,WNW,299,0.0,1.0,98,0.00,,,0.03,0.000000,,2013-06-27 11:01:00,
2013-06-27 04:11:00,59.0,58.0,30.09,WNW,299,0.0,1.0,98,0.00,,,0.03,0.000000,,2013-06-27 11:11:00,
2013-06-27 04:21:00,59.0,58.0,30.09,WNW,299,0.0,1.0,98,0.00,,,0.03,0.000000,,2013-06-27 11:21:00,
2013-06-27 04:33:00,58.0,57.0,30.09,WNW,299,0.0,1.0,98,0.00,,,0.03,0.000000,,2013-06-27 11:33:00,
2013-06-27 04:43:00,58.0,57.0,30.09,WNW,299,0.0,1.0,98,0.00,,,0.03,0.000000,,2013-06-27 11:43:00,
2013-06-27 04:52:00,58.0,57.0,30.09,WNW,299,0.0,1.0,98,0.00,,,0.03,0.000000,,2013-06-27 11:52:00,
2013-06-27 05:01:00,58.0,57.0,30.09,WNW,299,0.0,0.0,98,0.00,,,0.03,0.000000,,2013-06-27 12:01:00,
2013-06-27 05:11:00,58.0,57.0,30.09,WNW,299,0.0,0.0,98,0.00,,,0.03,0.000000,,2013-06-27 12:11:00,
2013-06-27 05:22:00,58.0,57.0,30.09,WNW,299,0.0,0.0,98,0.00,,,0.03,0.000000,,2013-06-27 12:22:00,
2013-06-27 05:34:00,58.0,57.0,30.10,WNW,299,0.0,0.0,98,0.00,,,0.02,0.000000,,2013-06-27 12:34:00,
2013-06-27 05:42:00,58.0,57.0,30.10,WNW,299,0.0,0.0,98,0.00,,,0.02,0.000000,,2013-06-27 12:42:00,
2013-06-27 06:01:00,58.0,58.0,30.10,WNW,299,0.0,1.0,99,0.00,,,0.02,0.000000,,2013-06-27 13:01:00,
2013-06-27 06:11:00,58.0,57.0,30.10,WNW,299,0.0,0.0,98,0.00,,,0.02,5.000000,,2013-06-27 13:11:00,
2013-06-27 06:33:00,58.0,58.0,30.11,WNW,299,0.0,0.0,99,0.00,,,0.01,16.000000,,2013-06-27 13:33:00,
2013-06-27 06:43:00,58.0,58.0,30.11,NNW,339,0.0,1.0,99,0.00,,,0.01,28.000000,,2013-06-27 13:43:00,
2013-06-27 06:52:00,58.0,58.0,30.11,NNW,339,0.0,1.0,99,0.00,,,0.01,28.000000,,2013-06-27 13:52:00,
2013-06-27 07:01:00,58.0,58.0,30.11,NNW,339,0.0,1.0,99,0.00,,,0.01,49.000000,,2013-06-27 14:01:00,
2013-06-27 07:22:00,58.0,58.0,30.11,NNW,339,0.0,0.0,99,0.00,,,0.01,18.000000,,2013-06-27 14:22:00,
2013-06-27 07:33:00,59.0,59.0,30.11,NNW,339,0.0,1.0,99,0.00,,,0.01,23.000000,,2013-06-27 14:33:00,
2013-06-27 07:43:00,59.0,59.0,30.12,SSW,210,0.0,1.0,99,0.00,,,0.01,37.000000,,2013-06-27 14:43:00,
2013-06-27 07:52:00,59.0,59.0,30.12,SSW,210,0.0,1.0,99,0.00,,,0.01,37.000000,,2013-06-27 14:52:00,
2013-06-27 08:11:00,60.0,60.0,30.12,WNW,288,0.0,2.0,99,0.00,,,0.01,134.000000,,2013-06-27 15:11:00,
2013-06-27 08:22:00,60.0,60.0,30.13,SW,219,1.0,2.0,99,0.00,,,0.01,169.000000,,2013-06-27 15:22:00,
2013-06-27 08:33:00,60.0,60.0,30.12,SW,219,1.0,2.0,99,0.00,,,0.01,214.000000,,2013-06-27 15:33:00,
2013-06-27 08:42:00,61.0,61.0,30.13,WSW,242,1.0,3.0,99,0.00,,,0.01,274.000000,,2013-06-27 15:42:00,
2013-06-27 08:52:00,61.0,61.0,30.13,WSW,242,1.0,3.0,99,0.00,,,0.01,274.000000,,2013-06-27 15:52:00,
2013-06-27 09:02:00,61.0,61.0,30.13,SW,223,0.0,2.0,99,0.00,,,0.01,336.000000,,2013-06-27 16:02:00,
2013-06-27 09:11:00,62.0,61.0,30.14,WSW,257,2.0,4.0,98,0.00,,,0.01,320.000000,,2013-06-27 16:11:00,
2013-06-27 09:33:00,63.0,62.0,30.14,West,267,1.0,3.0,97,0.00,,,0.01,355.000000,,2013-06-27 16:33:00,
2013-06-27 09:43:00,65.0,63.0,30.14,WSW,245,2.0,3.0,93,0.00,,,0.01,554.000000,,2013-06-27 16:43:00,
2013-06-27 09:53:00,65.0,63.0,30.14,WSW,245,2.0,3.0,93,0.00,,,0.01,554.000000,,2013-06-27 16:53:00,
2013-06-27 10:01:00,67.0,63.0,30.14,West,279,2.0,5.0,86,0.00,,,0.01,626.000000,,2013-06-27 17:01:00,
2013-06-27 10:11:00,67.0,63.0,30.14,West,279,2.0,5.0,86,0.00,,,0.01,626.000000,,2013-06-27 17:11:00,
2013-06-27 10:22:00,67.0,63.0,30.14,West,279,2.0,5.0,86,0.00,,,0.01,626.000000,,2013-06-27 17:22:00,
2013-06-27 10:33:00,67.0,63.0,30.14,West,279,2.0,5.0,86,0.00,,,0.01,626.000000,,2013-06-27 17:33:00,
2013-06-27 10:43:00,67.0,63.0,30.14,West,279,2.0,5.0,86,0.00,,,0.01,626.000000,,2013-06-27 17:43:00,
2013-06-27 12:42:00,80.0,63.0,30.16,SW,229,3.0,7.0,57,0.00,,,0.00,977.000000,,2013-06-27 19:42:00,
2013-06-27 12:53:00,80.0,63.0,30.16,SW,229,3.0,7.0,57,0.00,,,0.00,977.000000,,2013-06-27 19:53:00,
2013-06-27 13:01:00,81.0,64.0,30.15,West,263,3.0,5.0,56,0.00,,,0.00,988.000000,,2013-06-27 20:01:00,
2013-06-27 13:11:00,81.0,62.0,30.15,West,271,2.0,5.0,52,0.00,,,0.00,998.000000,,2013-06-27 20:11:00,
2013-06-27 13:22:00,81.0,62.0,30.15,West,271,2.0,5.0,52,0.00,,,0.00,998.000000,,2013-06-27 20:22:00,
2013-06-27 13:35:00,82.0,60.0,30.15,WNW,294,2.0,5.0,48,0.00,,,0.00,1004.000000,,2013-06-27 20:35:00,
2013-06-27 13:44:00,83.0,60.0,30.15,SW,231,2.0,8.0,46,0.00,,,0.00,1000.000000,,2013-06-27 20:44:00,
2013-06-27 13:53:00,83.0,60.0,30.15,SW,231,2.0,8.0,46,0.00,,,0.00,1000.000000,,2013-06-27 20:53:00,
2013-06-27 14:01:00,84.0,60.0,30.15,WSW,250,2.0,7.0,44,0.00,,,0.00,997.000000,,2013-06-27 21:01:00,
2013-06-27 14:22:00,84.0,59.0,30.14,SSW,196,1.0,5.0,43,0.00,,,0.00,988.000000,,2013-06-27 21:22:00,
2013-06-27 14:34:00,85.0,59.0,30.14,WNW,286,1.0,5.0,42,0.00,,,0.00,979.000000,,2013-06-27 21:34:00,
2013-06-27 14:44:00,86.0,60.0,30.14,WNW,284,3.0,5.0,42,0.00,,,0.00,965.000000,,2013-06-27 21:44:00,
2013-06-27 14:52:00,86.0,60.0,30.14,WNW,284,3.0,5.0,42,0.00,,,0.00,965.000000,,2013-06-27 21:52:00,
2013-06-27 15:03:00,87.0,60.0,30.13,SSE,161,2.0,6.0,41,0.00,,,0.00,946.000000,,2013-06-27 22:03:00,
2013-06-27 15:12:00,87.0,60.0,30.13,SSE,161,2.0,6.0,41,0.00,,,0.00,946.000000,,2013-06-27 22:12:00,
2013-06-27 15:22:00,87.0,60.0,30.13,SSE,161,2.0,6.0,41,0.00,,,0.00,946.000000,,2013-06-27 22:22:00,
2013-06-27 15:33:00,89.0,61.0,30.13,SSW,211,2.0,4.0,39,0.00,,,0.00,900.000000,,2013-06-27 22:33:00,
2013-06-27 15:44:00,89.0,61.0,30.13,WNW,294,2.0,6.0,40,0.00,,,0.00,872.000000,,2013-06-27 22:44:00,
2013-06-27 15:57:00,89.0,61.0,30.13,WNW,294,2.0,6.0,40,0.00,,,0.00,872.000000,,2013-06-27 22:57:00,
2013-06-27 16:02:00,89.0,61.0,30.12,WNW,286,3.0,5.0,39,0.00,,,0.00,840.000000,,2013-06-27 23:02:00,
2013-06-27 16:33:00,89.0,61.0,30.12,WNW,289,3.0,9.0,40,0.00,,,0.00,766.000000,,2013-06-27 23:33:00,
2013-06-27 16:43:00,89.0,63.0,30.11,West,269,1.0,5.0,42,0.00,,,0.00,731.000000,,2013-06-27 23:43:00,
2013-06-27 17:02:00,89.0,62.0,30.11,WSW,254,1.0,5.0,41,0.00,,,0.00,687.000000,,2013-06-28 00:02:00,
2013-06-27 17:11:00,89.0,62.0,30.11,WSW,254,1.0,5.0,41,0.00,,,0.00,687.000000,,2013-06-28 00:11:00,
2013-06-27 17:25:00,89.0,62.0,30.11,South,170,2.0,6.0,41,0.00,,,0.00,647.000000,,2013-06-28 00:25:00,
2013-06-27 17:34:00,88.0,63.0,30.11,WSW,244,3.0,6.0,43,0.00,,,0.00,603.000000,,2013-06-28 00:34:00,
2013-06-27 17:44:00,89.0,64.0,30.10,WNW,283,1.0,6.0,44,0.00,,,0.00,555.000000,,2013-06-28 00:44:00,
2013-06-27 17:53:00,89.0,64.0,30.10,WNW,283,1.0,6.0,44,0.00,,,0.00,555.000000,,2013-06-28 00:53:00,
2013-06-27 18:02:00,88.0,63.0,30.10,WSW,254,2.0,5.0,43,0.00,,,0.00,510.000000,,2013-06-28 01:02:00,
2013-06-27 18:22:00,88.0,64.0,30.09,NNW,330,2.0,3.0,45,0.00,,,0.00,188.000000,,2013-06-28 01:22:00,
2013-06-27 18:43:00,85.0,63.0,30.09,NW,305,2.0,5.0,48,0.00,,,0.00,25.000000,,2013-06-28 01:43:00,
2013-06-27 18:53:00,85.0,63.0,30.09,NW,305,2.0,5.0,48,0.00,,,0.00,25.000000,,2013-06-28 01:53:00,
2013-06-27 19:03:00,84.0,63.0,30.09,NW,317,1.0,4.0,50,0.00,,,0.00,23.000000,,2013-06-28 02:03:00,
2013-06-27 19:35:00,82.0,63.0,30.09,WNW,295,2.0,3.0,52,0.00,,,0.00,19.000000,,2013-06-28 02:35:00,
2013-06-27 19:44:00,81.0,64.0,30.09,NW,325,1.0,3.0,56,0.00,,,0.00,18.000000,,2013-06-28 02:44:00,
2013-06-27 19:52:00,81.0,64.0,30.09,NW,325,1.0,3.0,56,0.00,,,0.00,18.000000,,2013-06-28 02:52:00,
2013-06-27 20:02:00,79.0,62.0,30.09,NW,325,1.0,2.0,57,0.00,,,0.00,16.000000,,2013-06-28 03:02:00,
2013-06-27 20:11:00,78.0,63.0,30.09,NW,325,0.0,1.0,60,0.00,,,0.00,12.000000,,2013-06-28 03:11:00,
2013-06-27 20:22:00,78.0,63.0,30.09,NW,325,0.0,1.0,60,0.00,,,0.00,12.000000,,2013-06-28 03:22:00,
2013-06-27 20:34:00,77.0,63.0,30.09,NW,325,0.0,1.0,61,0.00,,,0.00,11.000000,,2013-06-28 03:34:00,
2013-06-27 20:53:00,76.0,62.0,30.09,NW,325,1.0,1.0,63,0.00,,,0.00,5.000000,,2013-06-28 03:53:00,
2013-06-27 21:02:00,75.0,62.0,30.09,NW,325,1.0,1.0,64,0.00,,,0.00,0.000000,,2013-06-28 04:02:00,
2013-06-27 21:11:00,74.0,61.0,30.09,NW,325,1.0,1.0,65,0.00,,,0.00,0.000000,,2013-06-28 04:11:00,
2013-06-27 21:22:00,74.0,61.0,30.09,NW,325,1.0,1.0,65,0.00,,,0.00,0.000000,,2013-06-28 04:22:00,
2013-06-27 21:33:00,74.0,62.0,30.09,NW,325,1.0,1.0,66,0.00,,,0.00,0.000000,,2013-06-28 04:33:00,
2013-06-27 21:43:00,74.0,62.0,30.10,NW,325,1.0,1.0,66,0.00,,,0.00,0.000000,,2013-06-28 04:43:00,
2013-06-27 21:53:00,74.0,62.0,30.10,NW,325,1.0,1.0,66,0.00,,,0.00,0.000000,,2013-06-28 04:53:00,
2013-06-27 22:01:00,74.0,62.0,30.10,NW,325,1.0,1.0,67,0.00,,,0.00,0.000000,,2013-06-28 05:01:00,
2013-06-27 22:11:00,74.0,62.0,30.10,NW,325,0.0,1.0,67,0.00,,,0.00,0.000000,,2013-06-28 05:11:00,
2013-06-27 22:22:00,74.0,62.0,30.10,NW,325,0.0,1.0,67,0.00,,,0.00,0.000000,,2013-06-28 05:22:00,
2013-06-27 22:33:00,74.0,62.0,30.11,NW,325,1.0,1.0,66,0.00,,,0.00,0.000000,,2013-06-28 05:33:00,
2013-06-27 22:43:00,73.0,61.0,30.11,NW,325,0.0,1.0,67,0.00,,,0.00,0.000000,,2013-06-28 05:43:00,
2013-06-27 22:52:00,73.0,61.0,30.11,NW,325,0.0,1.0,67,0.00,,,0.00,0.000000,,2013-06-28 05:52:00,
2013-06-27 23:02:00,73.0,61.0,30.11,NW,325,1.0,1.0,67,0.00,,,0.00,0.000000,,2013-06-28 06:02:00,
2013-06-27 23:11:00,73.0,61.0,30.11,NW,325,1.0,1.0,67,0.00,,,0.00,0.000000,,2013-06-28 06:11:00,
2013-06-27 23:22:00,73.0,61.0,30.11,NW,325,1.0,1.0,67,0.00,,,0.00,0.000000,,2013-06-28 06:22:00,
2013-06-27 23:33:00,72.0,61.0,30.11,NW,325,1.0,2.0,69,0.00,,,0.00,0.000000,,2013-06-28 06:33:00,
2013-06-27 23:42:00,71.0,61.0,30.11,NNW,342,1.0,2.0,70,0.00,,,0.00,0.000000,,2013-06-28 06:42:00,
2013-06-27 23:52:00,71.0,61.0,30.11,NNW,342,1.0,2.0,70,0.00,,,0.00,0.000000,,2013-06-28 06:52:00,